Regional Weather Roundup
Issued by NWS Little Rock, AR

Home | Current Version | Previous Version | Text Only | Print | Product List | Glossary Off
Versions: 1 2 3 4 5 6 7 8 9 10 11 12 13 14 15 16 17 18 19 20 21 22 23 24 25 26 27 28 29 30 31

000
ASUS44 KLZK 231505
RWRLZK

WEATHER ROUNDUP FOR ARKANSAS
NATIONAL WEATHER SERVICE LITTLE ROCK AR
900 AM CST MON JAN 23 2017

NOTE: "FAIR" INDICATES FEW OR NO CLOUDS BELOW 12,000 FEET WITH NO
SIGNIFICANT WEATHER AND/OR OBSTRUCTIONS TO VISIBILITY.

ARZ001-003-010-029-231600-
NORTHWEST ARKANSAS

CITY           SKY/WX    TMP DP  RH WIND       PRES   REMARKS
FAYETTEVILLE   CLOUDY    38  36  92 VRB3      29.91S
FORT SMITH     SUNNY     39  34  82 SW9       29.94R
HARRISON       CLOUDY    38  35  89 NW9       29.90R
BENTONVILLE    CLOUDY   N/A N/A N/A NW3       29.91R
ROGERS         CLOUDY    37  34  89 N3        29.91
SILOAM SPGS    CLOUDY    36  32  87 N5        29.90S
HIGHFILL       CLOUDY    37  35  92 N5        29.91R
SPRINGDALE     CLOUDY    37  36  93 NW5       29.92S
$$

ARZ004-005-016-231600-
NORTH CENTRAL ARKANSAS

CITY           SKY/WX    TMP DP  RH WIND       PRES   REMARKS
BATESVILLE     CLOUDY    45  34  65 NW8G20    29.86R
FLIPPIN        CLOUDY    43  32  65 NW9       29.87R
MTN HOME       CLOUDY    40  35  83 N7        29.87R
$$

ARZ040-041-231600-
WEST CENTRAL ARKANSAS

CITY           SKY/WX    TMP DP  RH WIND       PRES   REMARKS
MENA           SUNNY     45  37  76 NW5       29.93R
MOUNT IDA      SUNNY     42  34  73 NW6       29.89R
$$

ARZ009-017-025-026-028-231600-
NORTHEAST ARKANSAS

CITY           SKY/WX    TMP DP  RH WIND       PRES   REMARKS
CORNING        CLOUDY    45  36  70 N15G21    29.82S
JONESBORO      SUNNY     45  35  68 N14G23    29.81R
NEWPORT        CLOUDY    44  37  76 MISG        N/A
WALNUT RIDGE   CLOUDY    45  34  65 NW20      29.82R
BLYTHEVILLE    SUNNY     46  38  73 NW22G29   29.81R
$$

ARZ022-023-033-042-044-231600-
CENTRAL ARKANSAS

CITY           SKY/WX    TMP DP  RH WIND       PRES   REMARKS
LITTLE ROCK    PTSUNNY   44  37  76 NW15      29.88R
N LITTLE ROCK    N/A     43  37  81 N5        29.90R
JACKSONVILLE   CLOUDY    45  37  75 NW10      29.87R
SEARCY         CLOUDY    45  38  76 N9        29.89R
HOT SPRINGS    SUNNY     43  35  73 NW7       29.91R
RUSSELLVILLE   SUNNY     41  35  79 W10       29.91R
CLINTON        FAIR      45  36  70 CALM      29.88R
$$

ARZ036-231600-
EAST ARKANSAS

CITY           SKY/WX    TMP DP  RH WIND       PRES   REMARKS
WEST MEMPHIS   PTSUNNY   45  39  79 N14G24    29.81R
$$

ARZ050-053-066-070-073-231600-
SOUTHWEST ARKANSAS

CITY           SKY/WX    TMP DP  RH WIND       PRES   REMARKS
ARKADELPHIA    FAIR      43  36  76 VRB6      29.93R
CAMDEN         SUNNY     45  32  61 NW9       29.94R
TEXARKANA      SUNNY     42  36  79 NW7       29.94R
EL DORADO        N/A    N/A N/A N/A MISG      29.94R
DE QUEEN       SUNNY     41  37  86 SW5       29.92R
$$

ARZ056-057-069-231600-
SOUTHEAST ARKANSAS

CITY           SKY/WX    TMP DP  RH WIND       PRES   REMARKS
PINE BLUFF     CLOUDY    44  37  76 NW12      29.88R
STUTTGART      CLOUDY    45  34  65 NW16G23   29.87R
MONTICELLO     MOSUNNY   45  37  73 NW10G17   29.86R

$$






USA.gov is the U.S. government's official web portal to all federal, state and local government web resources and services.